#timestamp,LO_Frequency,Hit 
1504908015.8,286046934.4,N
1504908035.6,286046934.6,N
1504908055.5,286046934.2,N
1504908075.3,286046937.1,N
1504908095.1,286046936.8,N
1504908115.9,286046936.8,N
1504908135.7,286046935.7,N
1504908155.5,286046936.9,N
1504908175.3,286046936.8,N
1504908195.2,286046938.8,N
1504908215.0,286046936.0,N
1504908215.9,286046936.0,N
1504908235.7,286046936.1,N
1504908255.6,286046936.0,N
1504908275.4,286046938.4,N
1504908295.2,286046938.6,N
1504908315.1,286046938.5,N
1504908316.0,286046938.5,N
1504908335.8,286046938.6,N
1504908355.6,286046938.2,N
1504908375.5,286046938.1,N
1504908395.3,286046937.9,N
1504908415.1,286046937.9,N
1504908435.8,286046938.5,N
1504908455.7,286046937.8,N
1504908475.5,286046938.0,N
1504908495.3,286046940.3,N
1504908515.2,286046937.5,N
1504908535.9,286046940.0,P
1504908555.7,286047002.2,N
1504908575.6,286047002.0,N
1504908595.4,286047001.6,N
1504908615.2,286047001.8,N
1504908635.1,286047001.7,N
1504908636.0,286047001.7,N
1504908655.8,286047001.3,N
1504908675.6,286047004.0,N
1504908695.5,286047004.2,N
1504908715.3,286047004.2,N
1504908735.1,286047004.0,N
1504908755.9,286047004.1,N
1504908775.7,286047003.5,N
1504908795.5,286047003.2,N
1504908815.4,286047003.3,N
1504908835.2,286047003.2,N
1504908855.0,286047005.8,N
1504908855.9,286047005.8,N
1504908875.7,286047005.9,N
1504908895.6,286047005.1,N
1504908915.4,286047005.2,N
1504908935.2,286047007.6,N
1504908955.1,286047004.7,N
1504908956.0,286047004.7,N
1504908975.8,286047004.9,N
1504908995.6,286047007.6,N
1504909015.5,286047007.4,N
1504909035.3,286047006.9,N
1504909055.1,286047006.4,N
1504909075.9,286047006.6,N
1504909095.7,286047009.2,P
1504909115.5,286047004.1,N
1504909135.4,286047003.6,N
1504909155.2,286047003.7,N
1504909175.0,286047005.9,N
1504909175.9,286047005.9,N
1504909195.8,286047004.5,N
1504909215.6,286047004.9,N
1504909235.4,286047005.1,P
1504909255.3,286047002.8,P
1504909275.1,286047002.4,N
1504909276.0,286047002.4,N
1504909295.8,286046999.7,N
1504909315.7,286047002.7,N
1504909335.5,286047002.2,N
1504909355.3,286047002.3,N
1504909375.2,286047001.8,N
1504909395.9,286047002.1,N
1504909415.7,286047001.5,N
1504909435.5,286047001.9,N
1504909455.4,286047002.0,N
1504909475.2,286047001.5,N
1504909495.0,286047004.2,P
1504909495.9,286047004.2,P
1504909515.8,286047000.1,N
1504909535.6,286047002.8,N
1504909555.4,286047000.2,N
1504909575.3,286047002.6,N
1504909595.1,286047002.8,N
1504909615.8,286047001.9,N
1504909635.7,286047002.2,N
1504909655.5,286047001.4,N
1504909675.3,286047001.8,N
1504909695.2,286047001.3,N
1504909715.9,286047004.3,P
1504909735.7,286047002.2,N
1504909755.6,286047002.7,N
1504909775.4,286047002.3,N
1504909795.2,286047002.3,N
1504909815.0,286047002.1,N
1504909816.0,286047002.1,N
1504909835.8,286047001.9,N
1504909855.6,286047001.8,N
1504909875.4,286047001.4,N
1504909895.3,286047004.4,P
1504909915.1,286046999.9,N
1504909935.9,286047000.1,N
1504909955.7,286047002.8,N
1504909975.5,286047002.4,N
1504909995.3,286047002.3,N
1504910015.2,286047002.4,N
1504910035.0,286047002.6,N
1504910035.9,286047002.6,N
1504910055.7,286047002.1,N
1504910075.6,286047001.3,N
1504910095.4,286047001.9,N
1504910115.2,286047001.5,N
1504910135.1,286047001.8,N
1504910136.0,286047001.8,N
1504910155.8,286047001.5,N
1504910175.6,286047003.8,P
1504910195.5,286047002.4,N
1504910215.3,286047002.6,P
1504910235.1,286047002.5,P
1504910255.9,286046999.0,P
1504910275.7,286046998.8,N
1504910295.5,286047001.2,N
1504910315.4,286047000.8,N
1504910335.2,286047000.7,N
1504910355.0,286047000.8,N
1504910355.9,286047000.8,N
1504910375.8,286046998.2,N
1504910395.6,286047000.6,N
1504910415.4,286047000.9,N
1504910435.3,286047000.5,N
1504910455.1,286047000.4,N
1504910456.0,286047000.4,N
1504910475.8,286047001.0,N
1504910495.7,286047000.5,N
1504910515.5,286047000.2,N
1504910535.3,286047000.2,N
1504910555.1,286047000.5,N
1504910575.9,286046999.7,N
1504910595.7,286047002.7,N
1504910615.5,286047002.3,N
1504910635.4,286046999.8,N
1504910655.2,286046999.9,N
1504910675.0,286046999.8,N
1504910675.9,286046999.8,N
1504910695.8,286047002.4,N
1504910715.6,286047001.6,N
1504910735.4,286047001.5,N
1504910755.3,286047002.1,N
1504910775.1,286047001.6,N
1504910776.0,286047001.6,N
1504910795.8,286047001.8,N
1504910815.6,286047002.4,N
1504910835.5,286047004.1,P
1504910855.3,286047001.3,N
1504910875.2,286047001.6,N
1504910895.9,286047004.4,P
1504910915.7,286047000.5,N
1504910935.6,286047000.7,N
1504910955.4,286047001.0,N
1504910975.2,286047000.9,N
1504910995.0,286047002.7,N
1504910996.0,286047002.7,N
1504911015.8,286046999.9,N
1504911035.6,286047002.8,N
1504911055.4,286047000.1,N
1504911075.3,286046999.8,N
1504911095.1,286047002.7,N
1504911115.8,286047000.2,N
1504911135.7,286046999.8,N
1504911155.5,286047000.2,N
1504911175.3,286047002.3,N
1504911195.2,286046999.7,N
1504911215.9,286047002.7,N
1504911235.7,286047004.4,P
1504911255.6,286046999.7,N
1504911275.4,286046999.9,N
1504911295.2,286047000.2,N
1504911315.1,286047002.3,N
1504911316.0,286047002.3,N
1504911335.8,286046999.7,N
1504911355.6,286047002.7,N
1504911375.5,286047002.4,N
1504911395.3,286047002.4,N
1504911415.1,286047002.0,N
1504911435.8,286047001.9,N
1504911455.7,286047002.0,N
1504911475.5,286047001.9,N
1504911495.3,286047001.6,N
1504911515.2,286047001.6,N
1504911535.9,286047001.6,N
1504911555.7,286047001.5,N
1504911575.6,286047002.2,N
1504911595.4,286047001.4,N
